Location: Newark
(11.0594°S, 77.5318°W)
Time: 20:52:23
(UTC+00:00)

Hubble Space Telescope - Visible Passes

Search period start: 19 July 2019 00:00
Search period end: 29 July 2019 00:00
Orbit: 536 x 540 km, 28.5° (Epoch: 19 July)

Date Brightness Start Highest point End Pass type
(mag) Time Alt. Az. Time Alt. Az. Time Alt. Az.
19 Jul 2.6 10:00:32 20° NNW 10:00:32 20° NNW 10:03:24 10° NNE visible
19 Jul 1.4 23:35:17 10° WNW 23:39:18 50° SSW 23:43:03 12° SE visible
20 Jul 3.1 09:50:45 13° NNW 09:50:45 13° NNW 09:52:05 10° N visible
20 Jul 1.8 23:24:58 10° W 23:28:49 37° SSW 23:32:41 10° SE visible
